Regional Weather Roundup
Issued by NWS Austin/San Antonio, TX

Home | Current Version | Previous Version | Text Only | Print | Product List | Glossary Off
Versions: 1 2 3 4 5 6 7 8 9 10 11 12 13 14 15 16 17 18 19 20 21 22 23 24 25 26 27 28 29 30 31 32 33 34 35 36 37 38 39 40 41 42 43 44 45 46 47 48 49 50

000
ASUS44 KEWX 210010
RWREWX
SOUTH TEXAS REGIONAL WEATHER ROUNDUP
NATIONAL WEATHER SERVICE AUSTIN/SAN ANTONIO TX
700 PM CDT WED SEP 20 2017

NOTE: "FAIR" INDICATED FEW OR NO CLOUDS BELOW 12,000 FEET WITH NO
SIGNIFICANT WEATHER AND/OR OBSTRUCTIONS TO VISIBILITY.

* - THESE STATIONS ARE NOT NWS OR FAA STATIONS...AND ARE NOT SUBJECT
    TO NWS AND FAA QUALITY CONTROL.

TXZ171-172-183>190-210100-
TEXAS HILL COUNTRY AND EDWARDS PLATEAU

CITY           SKY/WX    TMP DP  RH WIND       PRES   REMARKS
JUNCTION       CLOUDY    93  66  40 S10       29.85R HX  96
6HR MIN TEMP:  92; 6HR MAX TEMP:  97;

*LLANO         PTCLDY    93  70  46 E7G18     29.86R HX  99
BURNET         CLEAR     90  70  51 SE12G20   29.88R HX  95
6HR MIN TEMP:  90; 6HR MAX TEMP:  95;

*HORSESHOE BAY CLEAR     91  68  46 SE9G18    29.85R HX  95
6HR MIN TEMP:  91; 6HR MAX TEMP:  96;

*KERRVILLE     MOCLDY    92  71  50 S9        29.88S HX  98
6HR MIN TEMP:  84; 6HR MAX TEMP:  94;

*FREDERICKSBRG PTCLDY    89  63  41 S5        29.88R HX  90
6HR MIN TEMP:  87; 6HR MAX TEMP:  94;

*ROCKSPRINGS   NOT AVBL
*BOERNE STAGE  CLOUDY    88  66  48 SE9       29.88S HX  90
*CASTROVILLE   CLOUDY    94  61  33 SE9       29.84S HX  94
HONDO          MOCLDY    96  66  37 SE9       29.82S HX  99
6HR MIN TEMP:  90; 6HR MAX TEMP: 102;

*UVALDE        MOCLDY    95  67  40 S7        29.81F HX  98
6HR MIN TEMP:  88; 6HR MAX TEMP:  98;

DEL RIO        CLOUDY    95  68  41 SE8       29.76F HX  99
6HR MIN TEMP:  92; 6HR MAX TEMP:  98;

LAUGHLIN AFB   CLOUDY    95  67  40 SE13      29.77F HX  99
6HR MIN TEMP:  92; 6HR MAX TEMP:  98;

CARRIZO SPRGS  PTCLDY    97  66  36 SE7       29.77S HX 100
*EAGLE PASS    CLEAR     97  64  34 SE8       29.77F HX  99
$$

TXZ173-191>194-202-209-217>225-228-210100-
CENTRAL AND SOUTH CENTRAL TEXAS

CITY           SKY/WX    TMP DP  RH WIND       PRES   REMARKS
GEORGETOWN     CLEAR     90  70  51 S10       29.87R HX  95
6HR MIN TEMP:  90; 6HR MAX TEMP:  94;

AUSTIN/BERGSTM PTCLDY    91  71  51 S12       29.84R HX  97
6HR MIN TEMP:  91; 6HR MAX TEMP:  95;

AUSTIN/MABRY   CLEAR     90  69  50 S8        29.86R HX  94
6HR MIN TEMP:  90; 6HR MAX TEMP:  96;

*AUSTIN/EXEC   CLEAR     90  72  55 CALM      29.86R HX  96
*LAGO VISTA    CLEAR     89  69  52 SE7       29.88S HX  93
6HR MIN TEMP:  89; 6HR MAX TEMP:  94;

SAN MARCOS     PTCLDY    90  72  55 S10       29.86R HX  97
6HR MIN TEMP:  90; 6HR MAX TEMP:  94;

NEW BRAUNFELS  CLOUDY    91  70  49 S12       29.84R HX  96
6HR MIN TEMP:  91; 6HR MAX TEMP:  96;

RANDOLPH AFB   CLOUDY    89  69  51 SE9       29.85R HX  93
6HR MIN TEMP:  89; 6HR MAX TEMP:  96;

PT SAN ANTONIO CLOUDY    92  70  47 SE14      29.82S HX  98
6HR MIN TEMP:  91; 6HR MAX TEMP:  98;

SAN ANTONIO    CLOUDY    91  68  46 SE17      29.85R HX  95
6HR MIN TEMP:  89; 6HR MAX TEMP:  97;

STINSON FIELD  PTCLDY    93  70  46 SE12      29.81S HX  99
6HR MIN TEMP:  93; 6HR MAX TEMP: 100;

*LA GRANGE     CLEAR     90  76  63 S7        29.84R HX 100
6HR MIN TEMP:  90; 6HR MAX TEMP:  96;

*GIDDINGS      CLEAR     89  72  56 S7        29.86S HX  95
6HR MIN TEMP:  89; 6HR MAX TEMP:  93;

*GONZALES      CLEAR     89  76  65 S8        29.85R HX 100
6HR MIN TEMP:  89; 6HR MAX TEMP:  96;

$$

TXZ163>164-176>182-195>201-210>213-226-227-235-210100-
SOUTHEAST TEXAS

CITY           SKY/WX    TMP DP  RH WIND       PRES   REMARKS
COLLEGE STN    CLEAR     90  73  57 S10       29.85S HX  98
6HR MIN TEMP:  89; 6HR MAX TEMP:  94;

*BRYAN         CLEAR     88  71  57 MISG      29.87S HX  94
6HR MIN TEMP:  88; 6HR MAX TEMP:  93;

*CALDWELL      CLEAR     89  72  56 S7        29.86R HX  95
6HR MIN TEMP:  88; 6HR MAX TEMP:  94;

*CROCKETT      CLOUDY    86  75  70 SE7       29.91R HX  95
*BRENHAM       CLEAR     91  73  56 S8        29.87R HX  98
6HR MIN TEMP:  91; 6HR MAX TEMP:  95;

HUNTSVILLE     CLEAR     87  72  60 SE3       29.88S HX  93
6HR MIN TEMP:  87; 6HR MAX TEMP:  93;

CONROE         CLEAR     85  75  72 SE7       29.89R HX  93
6HR MIN TEMP:  85; 6HR MAX TEMP:  94;

HOUSTON BUSH   PTCLDY    85  75  72 S7        29.88S HX  93
6HR MIN TEMP:  81; 6HR MAX TEMP:  93; 6HR PCP:  0.48;

HOUSTON HOBBY  CLOUDY    85  77  77 S7        29.88S HX  95
6HR MIN TEMP:  79; 6HR MAX TEMP:  93; 6HR PCP:  1.23;

*HOUSTON SW AP CLOUDY    84  76  79 S8        29.88F HX  93
6HR MIN TEMP:  84; 6HR MAX TEMP:  91;

PEARLAND       CLOUDY    87  75  67 S8G17     29.90R HX  96
6HR MIN TEMP:  81; 6HR MAX TEMP:  91; 6HR PCP:  0.16;

HOUSTON HOOKS  CLOUDY    86  72  62 SE8       29.88S HX  92
6HR MIN TEMP:  86; 6HR MAX TEMP:  94;

ELLINGTON FLD  NOT AVBL
SUGAR LAND     CLOUDY    88  75  65 S12       29.86F HX  97
6HR MIN TEMP:  86; 6HR MAX TEMP:  95; 6HR PCP: TRACE;

*HOUSTON EXEC  CLOUDY    84  77  79 SE12      29.89R HX  94
*CLEVELAND MUN CLOUDY    83  76  78 S6        29.90S HX  91
6HR MIN TEMP:  80; 6HR MAX TEMP:  89;

*WHARTON       CLEAR     84  71  63 SE9       29.89R
6HR MIN TEMP:  84; 6HR MAX TEMP:  93;

*COLUMBUS      FAIR      87  71  59 S12       29.88R HX  92
6HR MIN TEMP:  87; 6HR MAX TEMP:  92;

*EAGLE LAKE    PTCLDY    87  77  71 S12       29.87R HX  99
6HR MIN TEMP:  87; 6HR MAX TEMP:  95;

$$

TXZ214>216-236>238-210100-
THE UPPER TEXAS COAST

CITY           SKY/WX    TMP DP  RH WIND       PRES   REMARKS
*ORANGE        PTCLDY    83  78  83 S6        29.94R HX  93
6HR MIN TEMP:  76; 6HR MAX TEMP:  86; 6HR PCP:  0.09;

PORT ARTHUR    PTCLDY    82  76  81 S7        29.91S
6HR MIN TEMP:  82; 6HR MAX TEMP:  87;

GALVESTON      PTCLDY    86  78  77 S12       29.90S HX  98
6HR MIN TEMP:  86; 6HR MAX TEMP:  92;

ANGLETON       PTCLDY    84  76  76 S13       29.89S HX  93
6HR MIN TEMP:  84; 6HR MAX TEMP:  92;

*BAY CITY      HAZE      85  77  76 S9        29.89R VSB 1   HX  96
PALACIOS       NOT AVBL
$$

TXZ229>234-239>247-210100-
TEXAS COASTAL BEND AND RIO GRANDE PLAINS

CITY           SKY/WX    TMP DP  RH WIND       PRES   REMARKS
VICTORIA       PTCLDY    86  73  65 S14       29.87R HX  93
6HR MIN TEMP:  86; 6HR MAX TEMP:  93;

*BEEVILLE      CLEAR     87  67  51 SE14G21   29.85R HX  90
6HR MIN TEMP:  87; 6HR MAX TEMP:  97;

ROCKPORT       MOCLDY    84  77  79 SE13G21   29.86R HX  94
6HR MIN TEMP:  84; 6HR MAX TEMP:  92;

*PORT ARANSAS  NOT AVBL
*PORT LAVACA   NOT AVBL
*INGLESIDE     CLEAR     88  79  74 MISG      29.85R HX 102
CORPUS CHRISTI MOCLDY    86  77  74 SE18      29.84R HX  97
6HR MIN TEMP:  86; 6HR MAX TEMP:  95;

CORPUS NAS     MOCLDY    86  79  79 SE20      29.84S HX  99
6HR MIN TEMP:  86; 6HR MAX TEMP:  93;

*ROBSTOWN      CLEAR     86  76  71 SE21      29.84S HX  96
6HR MIN TEMP:  86; 6HR MAX TEMP:  95;

ALICE          CLOUDY    88  74  63 SE13      29.83R HX  96
6HR MIN TEMP:  88; 6HR MAX TEMP: 100;

KINGSVILLE NAS MOCLDY    86  79  79 SE15G25   29.83R HX  99
6HR MIN TEMP:  86; 6HR MAX TEMP:  99;

COTULLA        PTCLDY    99  61  28 SE12      29.78S HX  99
6HR MIN TEMP:  94; 6HR MAX TEMP: 103;

*FAITH RANCH   CLEAR     97  63  32 SE9       29.79S HX  98
LAREDO         PTCLDY    97  65  34 SE14      29.80R HX  99
6HR MIN TEMP:  96; 6HR MAX TEMP: 103;

$$

TXZ248>255-210100-
DEEP SOUTH TEXAS

CITY           SKY/WX    TMP DP  RH WIND       PRES   REMARKS
BROWNSVILLE    CLEAR     85  77  77 SE14      29.85R HX  95
6HR MIN TEMP:  85; 6HR MAX TEMP:  92;

PORT ISABEL    PTCLDY    87  77  72 SE16      29.84R HX  99
6HR MIN TEMP:  86; 6HR MAX TEMP:  95;

*SOUTH PADRE   NOT AVBL
HARLINGEN


USA.gov is the U.S. government's official web portal to all federal, state and local government web resources and services.